This is the latest recevied weather packets stored in our database for station/object S51UL-6. If no packets are shown the sender has not sent any weather packets the latest 10 day(s).
| Time | Temp. | Humidity | Pressure | Rain* | Wind** | Luminosity | Snow |
|---|---|---|---|---|---|---|---|
| 1788431465 | 31.11° C | 51% | 1021 hPa | 1.02 mm | - | - | - |
| 1788431165 | 30° C | 51% | 1021.2 hPa | 1.52 mm | - | - | - |
| 1788430865 | 29.44° C | 50% | 1021.2 hPa | 1.52 mm | - | - | - |
| 1788430565 | 29.44° C | 50% | 1021.3 hPa | 3.05 mm | - | - | - |
| 1788430265 | 29.44° C | 52% | 1021.3 hPa | 3.05 mm | - | - | - |
| 1788429665 | 28.33° C | 56% | 1021.5 hPa | 3.05 mm | - | - | - |
| 1788429365 | 27.78° C | 56% | 1021.7 hPa | 3.05 mm | - | - | - |
| 1788429066 | 27.78° C | 56% | 1021.6 hPa | 3.05 mm | - | - | - |
| 1788428765 | 27.78° C | 56% | 1021.7 hPa | 3.05 mm | - | - | - |
| 1788428465 | 27.78° C | 57% | 1021.8 hPa | 3.05 mm | - | - | - |
| 1788428165 | 27.22° C | 59% | 1021.9 hPa | 3.05 mm | - | - | - |
| 1788427865 | 26.67° C | 60% | 1021.9 hPa | 3.05 mm | - | - | - |
| 1788427566 | 26.67° C | 60% | 1022 hPa | 3.05 mm | - | - | - |
| 1788427265 | 27.22° C | 61% | 1021.9 hPa | 1.52 mm | - | - | - |
| 1788426967 | 26.67° C | 63% | 1022.2 hPa | 1.52 mm | - | - | - |
| 1788426665 | 26.67° C | 63% | 1021.9 hPa | 1.52 mm | - | - | - |
| 1788426368 | 26.11° C | 63% | 1022.1 hPa | 1.52 mm | - | - | - |
| 1788426066 | 26.67° C | 64% | 1022.3 hPa | 1.02 mm | - | - | - |
| 1788425766 | 26.11° C | 66% | 1022.3 hPa | 1.02 mm | - | - | - |
| 1788425466 | 26.11° C | 66% | 1022.2 hPa | 0.51 mm | - | - | - |
| 1788425166 | 25.56° C | 66% | 1022.3 hPa | 0.51 mm | - | - | - |
| 1788424566 | 25.56° C | 69% | 1022.3 hPa | 1.52 mm | - | - | - |
| 1788424266 | 25° C | 69% | 1022.4 hPa | 1.52 mm | - | - | - |
| 1788423967 | 24.44° C | 72% | 1022.4 hPa | 1.02 mm | - | - | - |
| 1788423666 | 23.89° C | 72% | 1022.3 hPa | 1.52 mm | - | - | - |
* Rain latest hour (hover to see other rain measurements)
** Current wind speed in m/s (hover to see current wind gust speed)